CW8998 Weather Reports


Display with metric or nautical units.
time (UTC)temp
F
wind
direction
speed
MPH
gust
MPH
rain 1hr
in
rain 24hr
in
rain mn
in
humidity
%
barometer
mb
20260503032525 56 167 4.0 9.0 0.00 0.00 0.00 50 1006.5
20260503032025 55 196 3.0 9.0 0.00 0.00 0.00 51 1006.5
20260503031538 55 173 2.0 6.0 0.00 0.00 0.00 53 1006.5
20260503031026 55 213 2.0 5.0 0.00 0.00 0.00 51 1006.7
20260503030528 55 205 2.0 5.0 0.00 0.00 0.00 53 1006.7
20260503030045 55 174 2.0 5.0 0.00 0.00 0.00 55 1006.7
20260503025525 55 197 1.0 5.0 0.00 0.00 0.00 53 1006.9
20260503025025 55 223 1.0 4.0 0.00 0.00 0.00 53 1007.0
20260503024543 55 119 1.0 4.0 0.00 0.00 0.00 53 1007.1
20260503024025 55 199 1.0 5.0 0.00 0.00 0.00 50 1007.0
20260503023526 56 173 1.0 5.0 0.00 0.00 0.00 50 1007.1
20260503023050 56 142 2.0 5.0 0.00 0.00 0.00 49 1007.1
20260503022525 56 166 1.0 5.0 0.00 0.00 0.00 50 1007.2
20260503022027 56 188 1.0 5.0 0.00 0.00 0.00 50 1007.2
20260503021548 56 142 1.0 7.0 0.00 0.00 0.00 49 1007.3
20260503021028 57 140 2.0 8.0 0.00 0.00 0.00 50 1007.4
20260503020529 57 168 2.0 8.0 0.00 0.00 0.00 48 1007.4
20260503020036 57 150 2.0 6.0 0.00 0.00 0.00 48 1007.5
20260503015524 57 154 2.0 7.0 0.00 0.00 0.00 48 1007.5
20260503015025 57 179 1.0 7.0 0.00 0.00 0.00 48 1007.5
20260503014542 58 136 1.0 6.0 0.00 0.00 0.00 48 1007.6
20260503014025 58 195 2.0 6.0 0.00 0.00 0.00 46 1007.8
20260503013525 58 165 2.0 6.0 0.00 0.00 0.00 47 1008.0
20260503013042 58 125 1.0 5.0 0.00 0.00 0.00 47 1008.1
20260503012526 59 169 2.0 5.0 0.00 0.00 0.00 46 1008.2
20260503012025 59 115 2.0 6.0 0.00 0.00 0.00 46 1008.1
20260503011551 59 165 1.0 6.0 0.00 0.00 0.00 46 1008.3
20260503011025 59 155 2.0 7.0 0.00 0.00 0.00 46 1008.4
20260503010525 60 169 2.0 7.0 0.00 0.00 0.00 45 1008.5
20260503010047 60 164 1.0 5.0 0.00 0.00 0.00 46 1008.6
20260503005525 60 162 1.0 5.0 0.00 0.00 0.00 44 1008.7
20260503005025 60 119 1.0 4.0 0.00 0.00 0.00 45 1008.9
20260503004542 60 162 0.0 6.0 0.00 0.00 0.00 45 1008.9
20260503004025 60 175 0.0 6.0 0.00 0.00 0.00 43 1009.0
20260503003525 61 184 1.0 5.0 0.00 0.00 0.00 42 1009.2
20260503003057 61 0 1.0 6.0 0.00 0.00 0.00 42 1009.3
20260503002525 61 229 1.0 6.0 0.00 0.00 0.00 42 1009.4
20260503002025 61 170 3.0 6.0 0.00 0.00 0.00 41 1009.5
20260503001557 61 250 2.0 14.0 0.00 0.00 0.00 40 1009.6
20260503001026 61 198 4.0 20.0 0.00 0.00 0.00 40 1009.7
20260503000526 61 243 5.0 20.0 0.00 0.00 0.00 39 1009.9
20260503000109 62 189 6.0 15.0 0.00 0.00 0.00 39 1010.2
20260502235525 62 284 7.0 19.0 0.00 0.00 0.00 37 1010.4
20260502235026 62 178 5.0 19.0 0.00 0.00 0.00 36 1010.4
20260502234538 63 298 7.0 19.0 0.00 0.00 0.00 36 1010.4
20260502234025 63 157 6.0 16.0 0.00 0.00 0.00 34 1010.3
20260502233528 63 271 4.0 12.0 0.00 0.00 0.00 34 1010.4
20260502233038 63 254 4.0 13.0 0.00 0.00 0.00 34 1010.3
20260502232526 64 217 6.0 14.0 0.00 0.00 0.00 32 1010.3
20260502232025 64 201 5.0 15.0 0.00 0.00 0.00 32 1010.1
20260502231545 64 248 5.0 15.0 0.00 0.00 0.00 30 1010.1
20260502231025 65 288 6.0 16.0 0.00 0.00 0.00 30 1010.1
20260502230526 65 294 7.0 16.0 0.00 0.00 0.00 29 1010.1
20260502230040 65 257 7.0 16.0 0.00 0.00 0.00 29 1010.2
20260502225525 65 287 5.0 16.0 0.00 0.00 0.00 28 1010.0
20260502225027 66 275 8.0 25.0 0.00 0.00 0.00 28 1009.9
20260502224539 65 289 9.0 25.0 0.00 0.00 0.00 29 1010.0
20260502224025 66 249 5.0 14.0 0.00 0.00 0.00 28 1010.0
20260502223525 66 257 7.0 15.0 0.00 0.00 0.00 28 1010.0
20260502223037 65 69 5.0 15.0 0.00 0.00 0.00 29 1010.0
20260502222528 66 227 8.0 18.0 0.00 0.00 0.00 28 1010.0
20260502222027 66 240 4.0 19.0 0.00 0.00 0.00 29 1010.0
20260502221536 66 293 9.0 19.0 0.00 0.00 0.00 28 1010.2
20260502221027 66 268 4.0 15.0 0.00 0.00 0.00 29 1010.1
20260502220528 66 271 6.0 22.0 0.00 0.00 0.00 29 1010.3
20260502220042 66 292 3.0 22.0 0.00 0.00 0.00 29 1010.0
20260502215526 66 300 9.0 18.0 0.00 0.00 0.00 29 1010.3
20260502215025 66 342 7.0 18.0 0.00 0.00 0.00 29 1010.6
20260502214540 66 299 6.0 18.0 0.00 0.00 0.00 29 1010.3
20260502214025 67 313 7.0 18.0 0.00 0.00 0.00 29 1010.3
20260502213525 67 248 9.0 17.0 0.00 0.00 0.00 28 1010.4
20260502213040 67 272 6.0 14.0 0.00 0.00 0.00 28 1010.4
20260502212525 68 218 5.0 14.0 0.00 0.00 0.00 28 1010.2
20260502212025 68 294 6.0 13.0 0.00 0.00 0.00 28 1010.4
20260502211546 68 281 4.0 13.0 0.00 0.00 0.00 28 1010.4
20260502211025 67 314 6.0 13.0 0.00 0.00 0.00 29 1010.4
20260502210526 67 268 4.0 12.0 0.00 0.00 0.00 30 1010.6
20260502210043 67 186 5.0 12.0 0.00 0.00 0.00 29 1010.5
20260502205528 67 267 4.0 11.0 0.00 0.00 0.00 30 1010.6
20260502205028 67 283 5.0 11.0 0.00 0.00 0.00 29 1010.8
20260502204543 68 215 3.0 14.0 0.00 0.00 0.00 29 1010.8
20260502204026 67 284 4.0 15.0 0.00 0.00 0.00 29 1010.9
20260502203525 68 266 6.0 15.0 0.00 0.00 0.00 28 1011.0
20260502203041 68 212 3.0 15.0 0.00 0.00 0.00 29 1011.1
20260502202525 68 294 5.0 15.0 0.00 0.00 0.00 29 1011.3
20260502202027 68 241 6.0 15.0 0.00 0.00 0.00 29 1011.4
20260502201539 68 207 4.0 15.0 0.00 0.00 0.00 30 1011.4
20260502201027 67 236 3.0 14.0 0.00 0.00 0.00 31 1011.5
20260502200525 67 105 7.0 16.0 0.00 0.00 0.00 30 1011.7
20260502200044 67 297 6.0 16.0 0.00 0.00 0.00 29 1011.8
20260502195527 68 246 7.0 15.0 0.00 0.00 0.00 30 1011.9
20260502195026 69 232 4.0 12.0 0.00 0.00 0.00 29 1012.0
20260502194544 68 281 4.0 10.0 0.00 0.00 0.00 29 1012.1
20260502194026 68 233 3.0 14.0 0.00 0.00 0.00 33 1012.2
20260502193526 66 235 6.0 14.0 0.00 0.00 0.00 32 1012.3
20260502193037 67 229 6.0 18.0 0.00 0.00 0.00 32 1012.3
20260502192525 67 232 6.0 18.0 0.00 0.00 0.00 32 1012.4
20260502192028 67 191 7.0 18.0 0.00 0.00 0.00 31 1012.6
20260502191548 67 235 3.0 12.0 0.00 0.00 0.00 32 1012.6
20260502191028 67 208 4.0 13.0 0.00 0.00 0.00 31 1012.8
20260502190530 66 173 5.0 18.0 0.00 0.00 0.00 33 1012.9
20260502190041 66 237 8.0 18.0 0.00 0.00 0.00 32 1013.0
20260502185529 65 269 4.0 13.0 0.00 0.00 0.00 33 1013.1
20260502185029 65 274 6.0 15.0 0.00 0.00 0.00 32 1013.2
20260502184540 64 307 8.0 15.0 0.00 0.00 0.00 32 1013.2
20260502184032 66 183 3.0 13.0 0.00 0.00 0.00 32 1013.3
20260502183527 65 148 5.0 14.0 0.00 0.00 0.00 35 1013.3
20260502183037 65 249 6.0 14.0 0.00 0.00 0.00 33 1013.6
20260502182528 64 245 4.0 20.0 0.00 0.00 0.00 33 1013.6
20260502182026 65 223 7.0 20.0 0.00 0.00 0.00 31 1013.7
20260502181548 64 183 6.0 18.0 0.00 0.00 0.00 33 1014.0
20260502181028 63 177 5.0 17.0 0.00 0.00 0.00 34 1013.9
20260502180531 64 188 7.0 17.0 0.00 0.00 0.00 33 1014.1
20260502164027 59 167 8.0 16.0 0.00 0.00 0.00 34 1015.4
20260502163528 59 178 2.0 17.0 0.00 0.00 0.00 36 1015.3
20260502163042 58 303 8.0 17.0 0.00 0.00 0.00 35 1015.5
20260502162529 58 229 4.0 18.0 0.00 0.00 0.00 37 1015.6
20260502162025 58 186 5.0 18.0 0.00 0.00 0.00 37 1015.8
20260502161536 58 263 6.0 16.0 0.00 0.00 0.00 37 1015.8
20260502161027 58 158 7.0 16.0 0.00 0.00 0.00 36 1015.8
20260502160530 57 243 3.0 13.0 0.00 0.00 0.00 37 1016.0
20260502152028 54 190 4.0 13.0 0.00 0.00 0.00 41 1016.5
20260502151547 55 270 4.0 12.0 0.00 0.00 0.00 41 1016.7
20260502151027 54 192 3.0 12.0 0.00 0.00 0.00 44 1016.7
20260502150527 53 224 6.0 12.0 0.00 0.00 0.00 43 1016.8
20260502130529 45 221 3.0 8.0 0.00 0.00 0.00 52 1017.7
20260502123527 42 201 0.0 6.0 0.00 0.00 0.00 59 1017.8
20260502123045 41 274 1.0 4.0 0.00 0.00 0.00 59 1017.9
20260502122527 41 248 0.0 3.0 0.00 0.00 0.00 60 1017.8
20260502122030 40 202 0.0 3.0 0.00 0.00 0.00 60 1017.9
20260502121541 40 217 0.0 5.0 0.00 0.00 0.00 60 1017.9
20260502121028 40 0 1.0 5.0 0.00 0.00 0.00 60 1017.8
20260502120528 40 261 0.0 4.0 0.00 0.00 0.00 61 1017.9
20260502115527 40 224 1.0 8.0 0.00 0.00 0.00 60 1017.8
20260502115029 40 276 0.0 8.0 0.00 0.00 0.00 60 1017.9
20260502114537 39 244 3.0 8.0 0.00 0.00 0.00 60 1017.9
20260502114028 39 275 2.0 7.0 0.00 0.00 0.00 61 1017.9
20260502113527 39 290 2.0 7.0 0.00 0.00 0.00 61 1017.9
20260502113045 38 255 2.0 4.0 0.00 0.00 0.00 61 1017.9
20260502112529 38 262 1.0 4.0 0.00 0.00 0.00 62 1017.9
20260502112026 38 0 1.0 3.0 0.00 0.00 0.00 62 1017.9
20260502111548 38 207 0.0 3.0 0.00 0.00 0.00 62 1017.9
20260502111026 38 249 0.0 3.0 0.00 0.00 0.00 60 1017.9
20260502110527 38 248 1.0 3.0 0.00 0.00 0.00 60 1017.9
20260502110042 38 0 0.0 3.0 0.00 0.00 0.00 60 1017.8
20260502105527 38 0 0.0 3.0 0.00 0.00 0.00 60 1017.8
20260502105027 38 270 1.0 3.0 0.00 0.00 0.00 61 1017.8
20260502104538 37 0 0.0 2.0 0.00 0.00 0.00 62 1017.9
20260502104027 37 201 0.0 2.0 0.00 0.00 0.00 63 1017.8
20260502103527 37 0 0.0 2.0 0.00 0.00 0.00 62 1017.9
20260502103043 37 0 0.0 2.0 0.00 0.00 0.00 63 1018.0
20260502102527 37 0 0.0 1.0 0.00 0.00 0.00 63 1017.9
20260502102030 38 0 0.0 2.0 0.00 0.00 0.00 62 1017.9
20260502101546 38 0 0.0 2.0 0.00 0.00 0.00 62 1018.0
20260502101026 38 0 0.0 2.0 0.00 0.00 0.00 61 1017.9
20260502100526 38 229 0.0 2.0 0.00 0.00 0.00 61 1017.9
20260502091029 37 176 0.0 3.0 0.00 0.00 0.00 68 1017.9
20260502090527 37 190 1.0 2.0 0.00 0.00 0.00 66 1017.8
20260502071028 41 274 0.0 3.0 0.00 0.00 0.00 56 1018.1
20260502070528 41 0 1.0 3.0 0.00 0.00 0.00 56 1018.2
20260502070043 41 0 0.0 2.0 0.00 0.00 0.00 56 1018.2
20260502065527 42 0 0.0 3.0 0.00 0.00 0.00 55 1018.2
20260502065027 42 0 0.0 3.0 0.00 0.00 0.00 55 1018.3
20260502064542 42 0 1.0 4.0 0.00 0.00 0.00 54 1018.3
20260502064027 42 0 1.0 6.0 0.00 0.00 0.00 53 1018.3
20260502063526 42 300 2.0 6.0 0.00 0.00 0.00 53 1018.4
20260502063055 42 277 1.0 6.0 0.00 0.00 0.00 54 1018.4
20260502062527 42 300 2.0 7.0 0.00 0.00 0.00 54 1018.4
20260502062026 42 270 2.0 7.0 0.00 0.00 0.00 54 1018.4
20260502061542 42 304 2.0 5.0 0.00 0.00 0.00 55 1018.4
20260502061027 42 277 1.0 5.0 0.00 0.00 0.00 55 1018.3
20260502060527 42 277 1.0 5.0 0.00 0.00 0.00 55 1018.3
20260502060042 42 263 1.0 3.0 0.00 0.00 0.00 55 1018.2
20260502055527 42 0 0.0 3.0 0.00 0.00 0.00 55 1018.2
20260502055027 42 0 1.0 3.0 0.00 0.00 0.00 55 1018.3
20260502054545 42 0 1.0 3.0 0.00 0.00 0.00 54 1018.3
20260502054026 42 0 0.0 3.0 0.00 0.00 0.00 54 1018.3
20260502053526 42 298 0.0 4.0 0.00 0.00 0.00 54 1018.3
20260502053052 42 318 1.0 4.0 0.00 0.00 0.00 54 1018.4
20260502052526 43 304 1.0 4.0 0.00 0.00 0.00 54 1018.4
20260502052026 43 286 1.0 4.0 0.00 0.00 0.00 53 1018.4
20260502051537 43 282 1.0 4.0 0.00 0.00 0.00 53 1018.4
20260502051027 43 313 2.0 4.0 0.00 0.00 0.00 53 1018.4
20260502050530 43 305 1.0 4.0 0.00 0.00 0.00 53 1018.3
20260502050047 43 291 1.0 4.0 0.00 0.00 0.00 52 1018.3
20260502045527 43 319 1.0 4.0 0.00 0.00 0.00 51 1018.3
20260502045031 44 284 1.0 4.0 0.00 0.00 0.00 51 1018.3
20260502044541 44 0 1.0 4.0 0.00 0.00 0.00 51 1018.3
20260502044026 44 296 2.0 4.0 0.00 0.00 0.00 51 1018.3
20260502043529 44 0 1.0 4.0 0.00 0.00 0.00 50 1018.4
20260502043042 45 0 1.0 4.0 0.00 0.00 0.00 50 1018.4
20260502042526 45 306 2.0 4.0 0.00 0.00 0.00 49 1018.5
20260502042027 45 294 1.0 4.0 0.00 0.00 0.00 49 1018.5
20260502041539 45 273 1.0 4.0 0.00 0.00 0.00 49 1018.4
20260502041027 45 318 1.0 4.0 0.00 0.00 0.00 48 1018.4
20260502040527 45 277 1.0 4.0 0.00 0.00 0.00 48 1018.4
20260502040046 45 319 2.0 5.0 0.00 0.00 0.00 48 1018.4
20260502035527 45 319 2.0 5.0 0.00 0.00 0.00 48 1018.4
20260502035027 45 323 1.0 5.0 0.00 0.00 0.00 48 1018.4
20260502034541 45 319 1.0 4.0 0.00 0.00 0.00 47 1018.4
20260502034027 45 294 1.0 4.0 0.00 0.00 0.00 47 1018.5
20260502033526 46 289 1.0 4.0 0.00 0.00 0.00 47 1018.5
20260502033043 46 0 0.0 3.0 0.00 0.00 0.00 47 1018.6